[[{"header":{"parameterUnit":"m.s-1","parameterCategory":1,"la1":30.2991,"la2":30.254,"lo1":-89.0895,"lo2":-89.0444,"dy":0.0017,"dx":0.0017,"nx":28,"ny":28,"refTime":"2025-08-03T21:00:00:Z","depth":0,"parameterNumber":2,"parameterNumberName":"U-component_of_WINDS"},"data":[0,0,0,0,0,0,0,0,0,0,0,0,0,0,0,0,0,0,0,0,0,0,0,0,0,0,0,0,0,0,0,0,0,0,0,0,0,0,0,0,0,0,0,0,0,0,0,0,0,0,0,0,0,0,0,0,0,0,-0.37,-0.3699,0,-0.3616,-0.3615,-0.3614,-0.3535,-0.3534,-0.3533,-0.3533,-0.3446,-0.3445,-0.3444,0,0,0,0,0,0,0,0,0,0,0,0,0,-0.3791,-0.3789,-0.37,-0.3699,-0.3698,-0.3616,-0.3615,-0.3614,-0.3536,-0.3534,-0.3533,-0.3532,-0.3447,-0.3445,-0.3443,0,0,0,0,0,0,0,0,0,0,0,0,0,-0.3734,-0.3789,-0.3701,-0.3649,-0.3644,-0.3617,-0.3615,-0.3614,-0.3536,-0.3534,-0.3533,-0.3532,-0.3447,-0.3445,-0.3443,-0.346,0,0,-0.3437,-0.3436,0,0,0,0,0,0,0,0,-0.3737,-0.373,-0.3658,-0.3653,-0.3647,-0.3585,-0.3615,-0.3562,-0.3536,-0.3577,-0.3533,-0.3531,-0.3494,-0.3488,-0.3475,-0.3456,-0.3452,-0.3437,-0.3435,-0.3435,-0.3434,0,0,0,0,0,0,0,-0.3741,-0.3733,-0.3667,-0.3657,-0.365,-0.363,-0.362,-0.3605,-0.3545,-0.3573,-0.3567,-0.3558,-0.349,-0.3477,-0.3472,-0.3451,-0.3437,-0.3435,-0.3434,-0.3433,-0.3437,-0.3439,0,0,0,0,0,0,-0.3753,-0.3737,-0.367,-0.3665,-0.3689,-0.3629,-0.3618,-0.3606,-0.3544,-0.3534,-0.356,-0.3555,-0.3481,-0.3475,-0.3469,-0.3482,-0.3435,-0.3433,-0.3431,-0.3436,-0.3438,-0.3439,0,0,0,0,0,0,-0.3755,-0.3748,-0.3673,-0.3699,-0.3688,-0.3629,-0.3616,-0.3605,-0.3592,-0.3534,-0.3523,-0.3558,-0.348,-0.3472,-0.3462,-0.3478,-0.3432,-0.343,-0.3434,-0.3436,-0.3438,-0.351,0,0,0,0,0,0,-0.3758,-0.3749,-0.3755,-0.37,-0.3687,-0.3668,-0.3617,-0.3605,-0.3589,-0.3582,-0.3529,-0.3519,-0.3478,-0.3465,-0.346,-0.3474,-0.3428,-0.3433,-0.3435,-0.3438,-0.3506,-0.3514,-0.3521,0,0,0,0,0,-0.3762,-0.378,-0.3756,-0.3749,-0.3694,-0.367,-0.3662,-0.3615,-0.3591,-0.3596,-0.3558,-0.3521,-0.3477,-0.3465,-0.3458,-0.3472,-0.3431,-0.3435,-0.3437,-0.3502,-0.3513,-0.3521,0,0,0,0,0,0,-0.3839,-0.3772,-0.3745,-0.3746,-0.3714,-0.3656,-0.3662,-0.3627,-0.3602,-0.3596,-0.3538,-0.3527,-0.3523,-0.3497,-0.3484,-0.3483,-0.3449,-0.3451,-0.3501,-0.351,-0.3517,-0.3523,-0.3426,0,0,0,0,0,-0.3856,-0.3843,-0.3784,-0.379,-0.3776,-0.3722,-0.3709,-0.3675,-0.364,-0.3626,-0.3588,-0.3555,-0.3533,-0.352,-0.3497,-0.3502,-0.3488,-0.3508,-0.3515,-0.3522,-0.3524,-0.3521,-0.3529,-0.3449,-0.3449,-0.3449,0,0,-0.3892,-0.3853,-0.3848,-0.3805,-0.3776,-0.3762,-0.3711,-0.3699,-0.3687,-0.3624,-0.3612,-0.3582,-0.3541,-0.3538,-0.3534,-0.3516,-0.3543,-0.3526,-0.3532,-0.353,-0.3525,-0.3533,-0.3539,-0.3451,-0.3451,-0.3451,0,0,-0.3949,-0.3919,-0.3919,-0.3891,-0.3848,-0.3812,-0.3812,-0.3759,-0.3737,-0.3723,-0.3675,-0.366,-0.3625,-0.3596,-0.3578,-0.3621,-0.3585,-0.3615,-0.3655,-0.3653,-0.3659,-0.3664,-0.3678,-0.3683,-0.3617,-0.3618,-0.3618,0,-0.3998,-0.3975,-0.3924,-0.3914,-0.3895,-0.3837,-0.3836,-0.3811,-0.3763,-0.3751,-0.3731,-0.3683,-0.3652,-0.3639,-0.365,-0.3637,-0.3634,-0.3621,-0.3663,-0.3667,-0.3671,-0.3683,-0.3688,-0.3621,-0.3621,-0.3621,-0.362,0,-0.4037,-0.4022,-0.4027,-0.3981,-0.3963,-0.3958,-0.3905,-0.3892,-0.3859,-0.3825,-0.381,-0.377,-0.3736,-0.3731,-0.37,-0.3713,-0.3703,-0.3674,-0.3638,-0.3684,-0.3693,-0.3698,-0.3627,-0.3626,-0.3624,-0.3623,0,0,-0.4141,-0.4065,-0.4068,-0.4045,-0.3992,-0.3979,-0.397,-0.3937,-0.3926,-0.3895,-0.3884,-0.3855,-0.3826,-0.3805,-0.3769,-0.3767,-0.3801,-0.3738,-0.3736,-0.3749,-0.381,-0.3832,-0.3838,-0.3777,-0.3777,-0.3778,-0.3813,0,-0.4187,-0.4168,-0.4121,-0.4116,-0.4099,-0.4043,-0.4034,-0.4,-0.3967,-0.3948,-0.3911,-0.389,-0.3855,-0.3841,-0.3837,-0.3798,-0.3812,-0.3795,-0.3765,-0.3764,-0.3775,-0.3843,-0.3866,-0.3902,-0.3817,-0.3818,-0.3818,0,-0.4239,-0.421,-0.4203,-0.4148,-0.414,-0.4134,-0.4098,-0.4081,-0.404,-0.4016,-0.3991,-0.395,-0.3936,-0.3903,-0.3881,-0.3871,-0.3855,-0.3834,-0.3834,-0.3828,-0.3793,-0.3838,-0.3912,-0.3917,-0.3824,-0.3824,-0.3823,0,-0.4313,-0.4272,-0.4262,-0.4244,-0.4181,-0.4177,-0.4151,-0.4109,-0.4091,-0.4059,-0.4047,-0.4015,-0.3996,-0.3972,-0.3923,-0.3904,-0.3905,-0.3869,-0.3883,-0.3884,-0.3885,-0.3885,-0.3956,-0.3878,-0.3878,-0.3878,-0.3878,0,-0.4369,-0.4367,-0.4294,-0.4288,-0.4282,-0.4227,-0.4223,-0.4191,-0.4153,-0.4138,-0.4088,-0.4075,-0.4012,-0.3991,-0.3953,-0.3939,-0.3932,-0.391,-0.39,-0.3914,-0.3916,-0.3902,-0.3898,-0.388,-0.3879,-0.3879,-0.3879,0,-0.4451,-0.4402,-0.4387,-0.4327,-0.4312,-0.4311,-0.4259,-0.425,-0.4213,-0.4195,-0.4187,-0.4129,-0.4102,-0.4051,-0.4009,-0.3983,-0.3977,-0.396,-0.399,-0.3984,-0.3999,-0.3998,-0.4062,-0.4066,-0.3988,-0.3989,-0.399,0,-0.4489,-0.4485,-0.4425,-0.4411,-0.4386,-0.4365,-0.4346,-0.4291,-0.4274,-0.4225,-0.4221,-0.419,-0.4162,-0.412,-0.4073,-0.4041,-0.4021,-0.4046,-0.4016,-0.4029,-0.4019,-0.4019,-0.4017,-0.4053,-0.4054,-0.4055,-0.4055,0,-0.4561,-0.4536,-0.4511,-0.4477,-0.4456,-0.4426,-0.4394,-0.4386,-0.4323,-0.4305,-0.4276,-0.4254,-0.4211,-0.4179,-0.4139,-0.411,-0.4072,-0.4065,-0.4066,-0.408,-0.4097,-0.4085,-0.4007,-0.4064,-0.4063,-0.4062,-0.4062,-0.4062,-0.462,-0.4613,-0.4569,-0.4542,-0.4512,-0.4482,-0.447,-0.4431,-0.4406,-0.4366,-0.4335,-0.4308,-0.4264,-0.4206,-0.4179,-0.4156,-0.4138,-0.414,-0.414,-0.4141,-0.4146,-0.4102,-0.4149,-0.4148,-0.4148,-0.4148,-0.4148,0,-0.4688,-0.4656,-0.4632,-0.4587,-0.4566,-0.4532,-0.4493,-0.4477,-0.4454,-0.4417,-0.4389,-0.4354,-0.4323,-0.4273,-0.4237,-0.4228,-0.4209,-0.422,-0.4219,-0.4213,-0.4165,-0.4167,-0.4236,-0.4236,-0.4236,-0.4236,-0.4236,-0.4236,-0.472,-0.4706,-0.4676,-0.4645,-0.4613,-0.4586,-0.4567,-0.4538,-0.4508,-0.4471,-0.4445,-0.4413,-0.4369,-0.4329,-0.4298,-0.4284,-0.4272,-0.4288,-0.4269,-0.4225,-0.4217,-0.4209,-0.421,-0.4287,-0.4287,-0.4318,-0.4318,-0.4318]},{"header":{"parameterUnit":"m.s-1","parameterCategory":1,"la1":30.2991,"la2":30.254,"lo1":-89.0895,"lo2":-89.0444,"dy":0.0017,"dx":0.0017,"nx":28,"ny":28,"refTime":"2025-08-03T21:00:00:Z","depth":0,"parameterNumber":3,"parameterNumberName":"V-component_of_WINDS"},"data":[0,0,0,0,0,0,0,0,0,0,0,0,0,0,0,0,0,0,0,0,0,0,0,0,0,0,0,0,0,0,0,0,0,0,0,0,0,0,0,0,0,0,0,0,0,0,0,0,0,0,0,0,0,0,0,0,0,0,-2.953,-2.953,0,-2.9568,-2.9569,-2.9569,-2.9555,-2.9554,-2.9553,-2.9552,-2.9589,-2.9591,-2.9593,0,0,0,0,0,0,0,0,0,0,0,0,0,-2.9441,-2.9442,-2.953,-2.953,-2.9531,-2.9568,-2.9569,-2.9569,-2.9555,-2.9554,-2.9553,-2.9552,-2.9589,-2.9591,-2.9593,0,0,0,0,0,0,0,0,0,0,0,0,0,-2.9479,-2.9443,-2.953,-2.9528,-2.9528,-2.9568,-2.9569,-2.9569,-2.9555,-2.9554,-2.9553,-2.9551,-2.9588,-2.9591,-2.9593,-2.9636,0,0,-2.9602,-2.9603,0,0,0,0,0,0,0,0,-2.9477,-2.9483,-2.9528,-2.9528,-2.9529,-2.9556,-2.9551,-2.9592,-2.9556,-2.9545,-2.9552,-2.9551,-2.9579,-2.9582,-2.9592,-2.9638,-2.9639,-2.9602,-2.9603,-2.9605,-2.9605,0,0,0,0,0,0,0,-2.9474,-2.9481,-2.9545,-2.9528,-2.9529,-2.9525,-2.9529,-2.9559,-2.9569,-2.9546,-2.9545,-2.955,-2.9579,-2.959,-2.9593,-2.964,-2.9602,-2.9604,-2.9606,-2.9607,-2.9721,-2.9723,0,0,0,0,0,0,-2.9472,-2.9479,-2.9544,-2.9546,-2.9499,-2.9527,-2.9532,-2.9548,-2.9568,-2.957,-2.9551,-2.9549,-2.9586,-2.959,-2.9594,-2.9644,-2.9605,-2.9607,-2.9609,-2.972,-2.9721,-2.9723,0,0,0,0,0,0,-2.947,-2.9478,-2.9542,-2.9512,-2.952,-2.953,-2.9549,-2.955,-2.956,-2.9572,-2.9574,-2.956,-2.9585,-2.9591,-2.9626,-2.9646,-2.9608,-2.9611,-2.9718,-2.972,-2.9722,-2.9746,0,0,0,0,0,0,-2.9468,-2.9477,-2.9494,-2.9513,-2.9522,-2.9574,-2.955,-2.9551,-2.9565,-2.9563,-2.9581,-2.9583,-2.9584,-2.9622,-2.9628,-2.9649,-2.9613,-2.9716,-2.9719,-2.9722,-2.9743,-2.9748,-2.9753,0,0,0,0,0,-2.9465,-2.9499,-2.9495,-2.9503,-2.9543,-2.9575,-2.958,-2.9581,-2.9567,-2.9584,-2.9591,-2.9583,-2.9643,-2.9626,-2.9633,-2.9654,-2.9715,-2.9718,-2.9721,-2.9741,-2.9747,-2.9753,0,0,0,0,0,0,-2.9481,-2.9501,-2.9497,-2.9539,-2.9555,-2.9572,-2.9593,-2.9588,-2.9608,-2.9605,-2.9605,-2.961,-2.9645,-2.9654,-2.9634,-2.9696,-2.9677,-2.9681,-2.9689,-2.9695,-2.97,-2.9696,-2.9615,0,0,0,0,0,-2.949,-2.9515,-2.9531,-2.9566,-2.9575,-2.9583,-2.9596,-2.9596,-2.9613,-2.9619,-2.963,-2.9645,-2.9668,-2.9682,-2.9704,-2.9745,-2.9748,-2.9763,-2.9768,-2.9772,-2.9775,-2.9797,-2.9803,-2.9734,-2.9733,-2.9733,0,0,-2.9508,-2.9522,-2.9538,-2.957,-2.9583,-2.9607,-2.9588,-2.9616,-2.9633,-2.9623,-2.9657,-2.9665,-2.9683,-2.9721,-2.9738,-2.9728,-2.9796,-2.9776,-2.9779,-2.978,-2.9801,-2.9807,-2.9813,-2.9736,-2.9735,-2.9735,0,0,-2.9553,-2.9567,-2.9597,-2.9611,-2.963,-2.9636,-2.9643,-2.9661,-2.9666,-2.97,-2.9693,-2.9714,-2.9753,-2.9765,-2.9777,-2.9827,-2.9819,-2.9834,-2.9858,-2.9879,-2.9884,-2.9889,-2.9905,-2.9911,-2.9838,-2.9838,-2.9838,0,-2.9572,-2.961,-2.9613,-2.9641,-2.9654,-2.9648,-2.9678,-2.969,-2.9716,-2.9725,-2.9715,-2.9763,-2.9774,-2.9815,-2.9827,-2.9837,-2.9844,-2.9831,-2.9884,-2.9889,-2.9893,-2.9908,-2.9915,-2.984,-2.9839,-2.9839,-2.9839,0,-2.9632,-2.9658,-2.968,-2.9706,-2.9722,-2.9751,-2.9757,-2.9774,-2.9773,-2.9778,-2.9813,-2.9827,-2.985,-2.986,-2.9859,-2.99,-2.9893,-2.9884,-2.9864,-2.9901,-2.9915,-2.9922,-2.9842,-2.9841,-2.9841,-2.984,0,0,-2.9687,-2.9714,-2.9722,-2.9733,-2.9755,-2.9775,-2.9803,-2.9827,-2.984,-2.9859,-2.9881,-2.9914,-2.9905,-2.9918,-2.9919,-2.9937,-2.9974,-2.9925,-2.9925,-2.9932,-3.0018,-3.0024,-3.0031,-2.997,-2.9971,-2.9972,-3.0016,0,-2.9732,-2.9782,-2.9786,-2.983,-2.9854,-2.9848,-2.9873,-2.9888,-2.9895,-2.9915,-2.9922,-2.9945,-2.9933,-2.994,-2.9958,-2.9966,-2.9991,-2.9963,-2.9989,-2.999,-2.9983,-3.0039,-3.0045,-3.0085,-3.0022,-3.0023,-3.0024,0,-2.979,-2.9811,-2.9858,-2.9876,-2.9886,-2.9908,-2.993,-2.995,-2.9967,-2.9971,-2.9986,-2.9984,-3.0011,-2.9993,-3.003,-3.0011,-3.0022,-3.0027,-3.0029,-3.0029,-3.0007,-3.0039,-3.0099,-3.0104,-3.0033,-3.0032,-3.0031,0,-2.9823,-2.9863,-2.9896,-2.9906,-2.9929,-2.9944,-2.9954,-2.997,-2.9984,-3.0003,-3.0012,-3.0034,-3.0045,-3.0062,-3.0065,-3.0051,-3.0102,-3.0084,-3.0104,-3.0104,-3.0113,-3.0112,-3.0174,-3.0124,-3.0124,-3.0124,-3.0124,0,-2.9872,-2.99,-2.9911,-2.9931,-2.9963,-2.9967,-2.9998,-3.0006,-3.0021,-3.0042,-3.0039,-3.0058,-3.0063,-3.0083,-3.0086,-3.0115,-3.0121,-3.0124,-3.0124,-3.0123,-3.0122,-3.0128,-3.0125,-3.0126,-3.0125,-3.0125,-3.0125,0,-2.9913,-2.9921,-2.9957,-2.9976,-2.9981,-3.0003,-3.0019,-3.0037,-3.0044,-3.0071,-3.0077,-3.0087,-3.0111,-3.0117,-3.0145,-3.0147,-3.0181,-3.0179,-3.0175,-3.0174,-3.0194,-3.0191,-3.026,-3.0268,-3.0215,-3.0215,-3.0216,0,-2.9942,-2.9964,-2.9985,-3.0,-3.001,-3.0034,-3.0048,-3.0053,-3.0068,-3.009,-3.0105,-3.0129,-3.0148,-3.0185,-3.0194,-3.0216,-3.0213,-3.0236,-3.0216,-3.0214,-3.0211,-3.0209,-3.021,-3.0239,-3.0239,-3.024,-3.024,0,-2.9992,-2.9996,-3.0017,-3.004,-3.0058,-3.0076,-3.0093,-3.0105,-3.0112,-3.0129,-3.0154,-3.0168,-3.0197,-3.022,-3.0241,-3.025,-3.0246,-3.0247,-3.0252,-3.025,-3.0246,-3.0247,-3.0183,-3.0244,-3.0244,-3.0244,-3.0243,-3.0243,-3.0027,-3.0046,-3.0064,-3.0088,-3.0102,-3.0118,-3.0136,-3.0146,-3.0167,-3.0191,-3.0193,-3.0219,-3.0235,-3.0264,-3.0274,-3.0294,-3.0287,-3.0295,-3.0297,-3.0298,-3.0299,-3.0245,-3.0298,-3.0298,-3.0298,-3.0298,-3.0298,0,-3.0075,-3.0087,-3.0109,-3.0134,-3.0153,-3.0149,-3.0168,-3.0183,-3.0206,-3.0223,-3.0242,-3.0269,-3.0291,-3.0303,-3.0324,-3.0338,-3.0336,-3.0343,-3.0341,-3.0343,-3.0305,-3.0297,-3.0344,-3.0344,-3.0344,-3.0344,-3.0344,-3.0344,-3.0103,-3.0134,-3.014,-3.0178,-3.0189,-3.0215,-3.0226,-3.0241,-3.0254,-3.0285,-3.0304,-3.0311,-3.0325,-3.0348,-3.0368,-3.037,-3.0377,-3.0385,-3.0386,-3.035,-3.0346,-3.0341,-3.0334,-3.0387,-3.0387,-3.0422,-3.0423,-3.0423]}]]